Location: *
(37.5724°S, 58.0067°E)
Time: 10:07:57
(UTC+00:00)

Cosmos 1726 - Pass Details

Date: 23 January 2021
Orbit: 480 x 499 km, 82.5° (Epoch: 27 February)

Event Time Altitude Azimuth Distance (km) Brightness Sun altitude
Rises 00:09:27 0° 188° (S) 2,588 6.1 -11.5°
Reaches altitude 10° 00:11:34 10° 189° (S) 1,700 5.2 -11.2°
Maximum altitude 00:15:17 83° 275° (W) 504 2.0 -10.6°
Drops below altitude 10° 00:18:59 10° 4° (N) 1,683 4.5 -10.0°
Sets 00:21:04 0° 4° (N) 2,559 5.4 -9.6°
